Météo par heure à Aligarh

Ce jour, 14 Mai, Vendredi

Heure Température Précipitation Vent Pression Humidité
00:00 +31°C° 0 mm 2 m/s 736 mmHg 51%
01:00 +30°C° 0 mm 2 m/s 736 mmHg 54%
02:00 +30°C° 0 mm 2 m/s 735 mmHg 57%
03:00 +30°C° 0 mm 2 m/s 736 mmHg 58%
04:00 +29°C° 0 mm 2 m/s 736 mmHg 59%
05:00 +29°C° 0 mm 2 m/s 736 mmHg 58%
06:00 +30°C° 0 mm 2 m/s 737 mmHg 51%
07:00 +33°C° 0 mm 3 m/s 737 mmHg 45%
08:00 +34°C° 0 mm 3 m/s 738 mmHg 38%
09:00 +36°C° 0 mm 3 m/s 737 mmHg 34%
10:00 +37°C° 0 mm 3 m/s 737 mmHg 29%
11:00 +39°C° 0 mm 2 m/s 737 mmHg 25%
12:00 +40°C° 0 mm 2 m/s 736 mmHg 22%
13:00 +41°C° 0 mm 2 m/s 735 mmHg 20%
14:00 +42°C° 0 mm 2 m/s 734 mmHg 18%
15:00 +43°C° 0 mm 3 m/s 734 mmHg 17%
16:00 +42°C° 0 mm 4 m/s 734 mmHg 17%
17:00 +42°C° 0 mm 4 m/s 733 mmHg 17%
18:00 +39°C° 0 mm 3 m/s 734 mmHg 21%
19:00 +37°C° 0 mm 3 m/s 734 mmHg 25%
20:00 +35°C° 0 mm 2 m/s 735 mmHg 29%
21:00 +35°C° 0 mm 2 m/s 735 mmHg 30%
22:00 +34°C° 0 mm 2 m/s 735 mmHg 31%
23:00 +33°C° 0 mm 1 m/s 735 mmHg 32%

Demain, 15 Mai, Samedi

Heure Température Précipitation Vent Pression Humidité
00:00 +33°C° 0 mm 1 m/s 735 mmHg 31%
01:00 +33°C° 0 mm 1 m/s 735 mmHg 31%
02:00 +32°C° 0 mm 1 m/s 734 mmHg 30%
03:00 +32°C° 0 mm 1 m/s 735 mmHg 31%
04:00 +32°C° 0 mm 2 m/s 735 mmHg 31%
05:00 +31°C° 0 mm 2 m/s 735 mmHg 31%
06:00 +34°C° 0 mm 2 m/s 736 mmHg 29%
07:00 +35°C° 0 mm 2 m/s 737 mmHg 27%
08:00 +36°C° 0 mm 2 m/s 738 mmHg 25%
09:00 +38°C° 0 mm 2 m/s 737 mmHg 23%
10:00 +40°C° 0 mm 2 m/s 737 mmHg 20%
11:00 +42°C° 0 mm 2 m/s 737 mmHg 17%
12:00 +42°C° 0 mm 2 m/s 736 mmHg 16%
13:00 +43°C° 0 mm 1 m/s 736 mmHg 15%
14:00 +44°C° 0 mm 1 m/s 735 mmHg 13%
15:00 +42°C° 0 mm 3 m/s 735 mmHg 18%
16:00 +40°C° 0 mm 5 m/s 735 mmHg 23%
17:00 +36°C° 0 mm 7 m/s 735 mmHg 27%
18:00 +37°C° 0 mm 5 m/s 735 mmHg 25%
19:00 +37°C° 0 mm 4 m/s 735 mmHg 22%
20:00 +38°C° 0 mm 2 m/s 735 mmHg 20%
21:00 +37°C° 0 mm 2 m/s 736 mmHg 21%
22:00 +37°C° 0 mm 2 m/s 736 mmHg 23%
23:00 +36°C° 0 mm 2 m/s 736 mmHg 25%

Après-demain, 16 Mai, Dimanche

Heure Température Précipitation Vent Pression Humidité
00:00 +35°C° 0 mm 2 m/s 736 mmHg 25%
01:00 +35°C° 0 mm 2 m/s 736 mmHg 25%
02:00 +35°C° 0 mm 3 m/s 735 mmHg 25%
03:00 +34°C° 0 mm 3 m/s 735 mmHg 25%
04:00 +34°C° 0 mm 3 m/s 736 mmHg 25%
05:00 +33°C° 0 mm 3 m/s 736 mmHg 25%
06:00 +35°C° 0 mm 3 m/s 737 mmHg 22%
07:00 +37°C° 0 mm 2 m/s 737 mmHg 19%
08:00 +39°C° 0 mm 2 m/s 738 mmHg 17%
09:00 +41°C° 0 mm 2 m/s 738 mmHg 15%
10:00 +43°C° 0 mm 2 m/s 737 mmHg 13%
11:00 +46°C° 0 mm 2 m/s 737 mmHg 11%
12:00 +46°C° 0 mm 2 m/s 736 mmHg 11%
13:00 +47°C° 0 mm 2 m/s 736 mmHg 10%
14:00 +47°C° 0 mm 2 m/s 735 mmHg 10%
15:00 +47°C° 0 mm 3 m/s 735 mmHg 10%
16:00 +48°C° 0 mm 4 m/s 734 mmHg 10%
17:00 +47°C° 0 mm 5 m/s 734 mmHg 10%
18:00 +45°C° 0 mm 4 m/s 734 mmHg 10%
19:00 +43°C° 0 mm 4 m/s 735 mmHg 11%
20:00 +42°C° 0 mm 3 m/s 735 mmHg 12%
21:00 +40°C° 0 mm 3 m/s 735 mmHg 13%
22:00 +40°C° 0 mm 3 m/s 735 mmHg 13%
23:00 +39°C° 0 mm 3 m/s 735 mmHg 14%

17 Mai, Lundi

Heure Température Précipitation Vent Pression Humidité
00:00 +39°C° 0 mm 3 m/s 735 mmHg 14%
01:00 +38°C° 0 mm 3 m/s 735 mmHg 15%
02:00 +38°C° 0 mm 3 m/s 735 mmHg 16%
03:00 +37°C° 0 mm 2 m/s 735 mmHg 16%
04:00 +37°C° 0 mm 2 m/s 735 mmHg 16%
05:00 +36°C° 0 mm 1 m/s 736 mmHg 17%
06:00 +36°C° 0 mm 1 m/s 736 mmHg 16%
07:00 +37°C° 0 mm 1 m/s 737 mmHg 15%
08:00 +39°C° 0 mm 1 m/s 737 mmHg 14%
09:00 +41°C° 0 mm 2 m/s 737 mmHg 13%
10:00 +43°C° 0 mm 3 m/s 737 mmHg 12%
11:00 +44°C° 0 mm 4 m/s 737 mmHg 12%
12:00 +43°C° 0 mm 5 m/s 737 mmHg 13%
13:00 +42°C° 0 mm 6 m/s 737 mmHg 15%
14:00 +41°C° 0 mm 6 m/s 737 mmHg 17%
15:00 +41°C° 0 mm 5 m/s 736 mmHg 18%
16:00 +40°C° 0 mm 4 m/s 736 mmHg 20%
17:00 +39°C° 0 mm 3 m/s 736 mmHg 21%
18:00 +38°C° 0 mm 2 m/s 736 mmHg 21%
19:00 +38°C° 0 mm 2 m/s 736 mmHg 21%
20:00 +38°C° 0 mm 2 m/s 736 mmHg 21%
21:00 +37°C° 0 mm 2 m/s 736 mmHg 22%
22:00 +37°C° 0 mm 3 m/s 736 mmHg 23%
23:00 +37°C° 0 mm 3 m/s 736 mmHg 23%

18 Mai, Mardi

Heure Température Précipitation Vent Pression Humidité
00:00 +37°C° 0 mm 4 m/s 736 mmHg 23%
01:00 +37°C° 0 mm 4 m/s 736 mmHg 23%
02:00 +36°C° 0 mm 5 m/s 735 mmHg 23%
03:00 +36°C° 0 mm 5 m/s 736 mmHg 24%
04:00 +36°C° 0 mm 4 m/s 736 mmHg 25%
05:00 +36°C° 0 mm 3 m/s 737 mmHg 25%
06:00 +36°C° 0 mm 3 m/s 737 mmHg 25%
07:00 +36°C° 0 mm 3 m/s 738 mmHg 25%
08:00 +36°C° 0 mm 3 m/s 738 mmHg 26%
09:00 +35°C° 0 mm 4 m/s 738 mmHg 28%
10:00 +34°C° 0 mm 4 m/s 739 mmHg 31%
11:00 +34°C° 0 mm 4 m/s 739 mmHg 34%
12:00 +34°C° 0 mm 4 m/s 739 mmHg 33%
13:00 +34°C° 0 mm 4 m/s 738 mmHg 33%
14:00 +34°C° 0 mm 4 m/s 738 mmHg 33%
15:00 +35°C° 0 mm 4 m/s 738 mmHg 32%
16:00 +35°C° 0 mm 4 m/s 737 mmHg 31%
17:00 +35°C° 0 mm 3 m/s 737 mmHg 30%
18:00 +34°C° 0 mm 3 m/s 737 mmHg 32%
19:00 +32°C° 0 mm 2 m/s 737 mmHg 34%
20:00 +31°C° 0 mm 1 m/s 737 mmHg 37%
21:00 +31°C° 0 mm 1 m/s 737 mmHg 37%
22:00 +31°C° 0 mm 1 m/s 737 mmHg 37%
23:00 +29°C° 0 mm 0 m/s 737 mmHg 38%

19 Mai, Mercredi

Heure Température Précipitation Vent Pression Humidité
00:00 +30°C° 0 mm 1 m/s 737 mmHg 38%
01:00 +30°C° 0 mm 1 m/s 736 mmHg 39%
02:00 +29°C° 0 mm 2 m/s 736 mmHg 39%
03:00 +30°C° 0 mm 2 m/s 736 mmHg 39%
04:00 +30°C° 0 mm 2 m/s 736 mmHg 39%
05:00 +30°C° 0 mm 2 m/s 736 mmHg 38%
06:00 +31°C° 0 mm 2 m/s 737 mmHg 36%
07:00 +32°C° 0 mm 2 m/s 737 mmHg 33%
08:00 +34°C° 0 mm 3 m/s 737 mmHg 30%
09:00 +36°C° 0 mm 3 m/s 737 mmHg 27%
10:00 +38°C° 0 mm 3 m/s 737 mmHg 25%
11:00 +41°C° 0 mm 4 m/s 737 mmHg 22%
12:00 +41°C° 0 mm 4 m/s 736 mmHg 21%
13:00 +42°C° 0 mm 5 m/s 736 mmHg 21%
14:00 +42°C° 0 mm 6 m/s 735 mmHg 20%
15:00 +42°C° 0 mm 5 m/s 735 mmHg 20%
16:00 +42°C° 0 mm 5 m/s 734 mmHg 19%
17:00 +42°C° 0 mm 4 m/s 734 mmHg 19%
18:00 +41°C° 0 mm 4 m/s 734 mmHg 20%
19:00 +39°C° 0 mm 3 m/s 734 mmHg 22%
20:00 +38°C° 0 mm 3 m/s 734 mmHg 24%
21:00 +37°C° 0 mm 3 m/s 734 mmHg 25%
22:00 +36°C° 0 mm 3 m/s 734 mmHg 26%
23:00 +36°C° 0 mm 3 m/s 734 mmHg 27%
Voir plus

Nous avons besoin de votre consentement

Meteoprog et ses fournisseurs de services peuvent stocker et accéder à des données personnelles telles que des cookies, des identifiants d'appareils ou d'autres technologies similaires sur votre appareil et traiter ces données pour personnaliser le contenu et les publicités, ainsi que pour fournir des fonctionnalités de médias sociaux et analyser le trafic.

  • Stocker et/ou accéder à des informations sur votre appareil

    Des cookies, des identifiants d'appareils ou d'autres informations peuvent être stockés ou accessibles sur votre appareil aux fins indiquées ci-dessus.

  • Annonces et contenus personnalisés, mesure des annonces et des contenus, connaissance de l'audience et développement de produits

    Les annonces et le contenu peuvent être personnalisés en fonction d'un profil. D'autres données peuvent être ajoutées pour mieux personnaliser les annonces et le contenu. Les performances des publicités et du contenu peuvent être mesurées. Il est possible d'obtenir des informations sur le public qui a vu les publicités et le contenu. Ces données peuvent être utilisées pour développer ou améliorer l'expérience de l'utilisateur, les systèmes et les logiciels.

En cliquant sur "J'accepte", vous autorisez l'utilisation de cookies, des identifiants d'appareils, des balises web ou d'autres technologies similaires. Vos paramètres peuvent être modifiés dans le navigateur de votre appareil.

Dans certains cas, des intérêts légitimes peuvent être invoqués plutôt qu'un consentement. Vous pouvez en savoir plus à ce sujet dans notre Politique de confidentialité et de cookies.